TimeEST,TemperatureF,Dew PointF,Humidity,Sea Level PressureIn,VisibilityMPH,Wind Direction,Wind SpeedMPH,Gust SpeedMPH,PrecipitationIn,Events,Conditions,WindDirDegrees,DateUTC
12:15 AM,23.0,18.5,83,30.14,10.0,WNW,17.3,25.3,N/A,,Overcast,290,2013-01-14 05:15:00
12:34 AM,23.0,18.5,83,30.15,10.0,WNW,13.8,19.6,N/A,,Overcast,290,2013-01-14 05:34:00
12:55 AM,23.0,18.9,84,30.15,10.0,WNW,13.8,-,N/A,,Overcast,300,2013-01-14 05:55:00
1:14 AM,22.5,18.1,83,30.16,10.0,West,13.8,20.7,N/A,,Overcast,280,2013-01-14 06:14:00
1:35 AM,22.1,17.4,82,30.17,10.0,West,16.1,23.0,N/A,,Overcast,260,2013-01-14 06:35:00
1:55 AM,21.9,17.6,83,30.18,10.0,West,13.8,-,N/A,,Overcast,270,2013-01-14 06:55:00
2:14 AM,21.9,17.6,83,30.20,10.0,WNW,12.7,-,N/A,,Overcast,300,2013-01-14 07:14:00
2:35 AM,21.7,17.4,83,30.20,10.0,WNW,12.7,-,N/A,,Overcast,300,2013-01-14 07:35:00
2:55 AM,21.7,17.1,82,30.22,10.0,West,19.6,-,N/A,,Overcast,270,2013-01-14 07:55:00
3:14 AM,21.6,16.7,82,30.23,10.0,West,13.8,19.6,N/A,,Overcast,270,2013-01-14 08:14:00
3:35 AM,21.6,16.5,81,30.25,10.0,WNW,16.1,-,N/A,,Overcast,290,2013-01-14 08:35:00
3:55 AM,21.6,16.5,81,30.25,10.0,West,15.0,-,N/A,,Overcast,280,2013-01-14 08:55:00
4:35 AM,21.2,16.2,81,30.27,10.0,West,10.4,-,N/A,Snow,Light Snow,270,2013-01-14 09:35:00
5:15 AM,21.2,16.5,82,30.28,10.0,West,13.8,-,N/A,Snow,Light Snow,280,2013-01-14 10:15:00
5:35 AM,21.2,16.0,80,30.29,10.0,West,11.5,-,N/A,Snow,Light Snow,270,2013-01-14 10:35:00
5:54 AM,21.2,16.2,81,30.29,10.0,West,10.4,-,N/A,Snow,Light Snow,280,2013-01-14 10:54:00
6:15 AM,21.2,16.3,82,30.29,10.0,West,10.4,-,N/A,Snow,Light Snow,280,2013-01-14 11:15:00
6:35 AM,21.2,16.5,82,30.30,10.0,West,12.7,-,N/A,Snow,Light Snow,270,2013-01-14 11:35:00
7:15 AM,21.2,16.0,80,30.32,10.0,WNW,9.2,16.1,N/A,,Overcast,290,2013-01-14 12:15:00
7:35 AM,21.6,16.3,80,30.33,10.0,WNW,10.4,-,N/A,Snow,Light Snow,290,2013-01-14 12:35:00
7:54 AM,21.2,15.8,80,30.35,10.0,WNW,13.8,-,N/A,,Overcast,290,2013-01-14 12:54:00
8:15 AM,21.2,14.9,77,30.36,10.0,WNW,9.2,-,N/A,,Overcast,300,2013-01-14 13:15:00
8:34 AM,21.2,15.4,78,30.37,10.0,WNW,8.1,-,N/A,Snow,Light Snow,300,2013-01-14 13:34:00
8:55 AM,21.6,15.6,78,30.37,10.0,WNW,13.8,18.4,N/A,,Overcast,290,2013-01-14 13:55:00
9:15 AM,21.7,14.9,75,30.38,10.0,NW,11.5,-,N/A,Snow,Light Snow,310,2013-01-14 14:15:00
9:35 AM,22.1,15.4,76,30.38,10.0,NW,11.5,17.3,N/A,Snow,Light Snow,320,2013-01-14 14:35:00
9:55 AM,22.1,15.6,76,30.38,10.0,NW,8.1,-,N/A,Snow,Light Snow,310,2013-01-14 14:55:00
10:15 AM,22.5,15.8,76,30.37,10.0,NW,11.5,18.4,N/A,,Overcast,310,2013-01-14 15:15:00
10:35 AM,22.1,15.4,76,30.38,10.0,WNW,12.7,-,N/A,,Overcast,300,2013-01-14 15:35:00
10:55 AM,22.6,15.8,75,30.38,10.0,WNW,6.9,-,N/A,,Overcast,300,2013-01-14 15:55:00
11:14 AM,23.0,16.2,75,30.37,10.0,NNW,8.1,-,N/A,,Overcast,330,2013-01-14 16:14:00
11:35 AM,23.0,16.0,74,30.37,10.0,WNW,6.9,-,N/A,,Overcast,300,2013-01-14 16:35:00
11:55 AM,23.5,16.3,74,30.35,10.0,North,5.8,-,N/A,,Overcast,350,2013-01-14 16:55:00
12:14 PM,23.0,15.8,74,30.36,10.0,NNW,9.2,-,N/A,,Overcast,330,2013-01-14 17:14:00
12:35 PM,23.5,15.8,72,30.36,10.0,NNW,4.6,-,N/A,,Overcast,340,2013-01-14 17:35:00
1:15 PM,23.7,15.4,71,30.35,10.0,NNW,4.6,-,N/A,,Overcast,330,2013-01-14 18:15:00
1:35 PM,24.4,15.8,70,30.36,10.0,West,5.8,-,N/A,,Overcast,280,2013-01-14 18:35:00
1:54 PM,24.4,16.2,71,30.37,10.0,West,8.1,-,N/A,,Overcast,270,2013-01-14 18:54:00
2:15 PM,24.6,15.8,69,30.38,10.0,West,8.1,-,N/A,,Overcast,280,2013-01-14 19:15:00
2:35 PM,24.8,15.8,69,30.38,10.0,WNW,5.8,-,N/A,,Overcast,300,2013-01-14 19:35:00
3:15 PM,24.6,16.2,70,30.38,10.0,West,4.6,-,N/A,,Overcast,280,2013-01-14 20:15:00
3:35 PM,24.4,16.5,72,30.40,10.0,WNW,4.6,-,N/A,,Overcast,290,2013-01-14 20:35:00
3:55 PM,24.4,16.7,72,30.40,10.0,WNW,5.8,-,N/A,,Overcast,290,2013-01-14 20:55:00
4:15 PM,24.1,15.6,70,30.39,10.0,WNW,5.8,-,N/A,,Overcast,300,2013-01-14 21:15:00
4:35 PM,24.3,16.2,71,30.43,10.0,West,6.9,-,N/A,,Overcast,270,2013-01-14 21:35:00
5:15 PM,24.3,16.0,71,30.42,10.0,West,3.5,-,N/A,,Overcast,260,2013-01-14 22:15:00
5:34 PM,24.1,16.2,72,30.42,10.0,West,3.5,-,N/A,,Overcast,270,2013-01-14 22:34:00
5:55 PM,23.9,14.9,69,30.42,10.0,Calm,Calm,-,N/A,,Overcast,0,2013-01-14 22:55:00
6:14 PM,24.1,14.7,68,30.42,10.0,Calm,Calm,-,N/A,,Overcast,0,2013-01-14 23:14:00
6:35 PM,23.7,14.4,67,30.42,10.0,Calm,Calm,-,N/A,,Overcast,0,2013-01-14 23:35:00
6:55 PM,24.1,14.7,68,30.41,10.0,Calm,Calm,-,N/A,,Overcast,0,2013-01-14 23:55:00
7:15 PM,23.5,14.4,68,30.42,10.0,Calm,Calm,-,N/A,,Overcast,0,2013-01-15 00:15:00
7:35 PM,23.4,14.5,69,30.40,10.0,Calm,Calm,-,N/A,,Overcast,0,2013-01-15 00:35:00
7:55 PM,23.5,14.4,68,30.40,10.0,Calm,Calm,-,N/A,,Overcast,0,2013-01-15 00:55:00
8:15 PM,23.4,14.9,70,30.40,10.0,WNW,3.5,-,N/A,,Overcast,300,2013-01-15 01:15:00
8:34 PM,23.5,14.9,70,30.40,10.0,Calm,Calm,-,N/A,,Overcast,0,2013-01-15 01:34:00
8:55 PM,22.8,14.9,72,30.40,10.0,WNW,3.5,-,N/A,,Mostly Cloudy,300,2013-01-15 01:55:00
9:15 PM,21.2,14.0,74,30.39,10.0,NW,4.6,-,N/A,,Scattered Clouds,310,2013-01-15 02:15:00
9:34 PM,21.0,14.0,74,30.39,10.0,NW,3.5,-,N/A,,Clear,310,2013-01-15 02:34:00
9:55 PM,20.1,13.6,76,30.38,10.0,NW,3.5,-,N/A,,Clear,310,2013-01-15 02:55:00
10:15 PM,18.3,13.3,81,30.39,10.0,Calm,Calm,-,N/A,,Clear,0,2013-01-15 03:15:00
10:34 PM,19.2,13.8,80,30.39,10.0,NW,3.5,-,N/A,,Clear,310,2013-01-15 03:34:00
11:15 PM,17.1,12.6,82,30.38,10.0,Calm,Calm,-,N/A,,Clear,0,2013-01-15 04:15:00
11:34 PM,16.7,12.7,84,30.39,7.0,Calm,Calm,-,N/A,,Clear,0,2013-01-15 04:34:00
11:55 PM,16.7,13.1,86,30.39,10.0,Calm,Calm,-,N/A,,Clear,0,2013-01-15 04:55:00